| time (UTC) | temp C | wind direction | speed KPH | gust KPH | rain 1hr cm | rain 24hr cm | rain mn cm | humidity % | barometer mb |
| 20260510204703 | 25 | 58 | 1.6 | 11.3 | 0.00 | 0.28 | 0.00 | 59 | 1012.2 |
| 20260510204204 | 25 | 115 | 0.0 | 8.0 | 0.00 | 0.28 | 0.00 | 59 | 1011.9 |
| 20260510203703 | 25 | 147 | 0.0 | 3.2 | 0.00 | 0.28 | 0.00 | 58 | 1011.9 |
| 20260510203203 | 25 | 135 | 1.6 | 8.0 | 0.00 | 0.28 | 0.00 | 55 | 1011.9 |
| 20260510202703 | 25 | 177 | 1.6 | 8.0 | 0.00 | 0.28 | 0.00 | 57 | 1012.2 |
| 20260510202203 | 25 | 152 | 0.0 | 8.0 | 0.00 | 0.28 | 0.00 | 56 | 1012.2 |
| 20260510201703 | 25 | 203 | 3.2 | 16.1 | 0.00 | 0.28 | 0.00 | 55 | 1012.2 |
| 20260510201203 | 25 | 192 | 0.0 | 11.3 | 0.00 | 0.28 | 0.00 | 55 | 1012.2 |
| 20260510200703 | 26 | 193 | 0.0 | 8.0 | 0.00 | 0.28 | 0.00 | 60 | 1012.0 |
| 20260510200204 | 26 | 71 | 1.6 | 3.2 | 0.00 | 0.28 | 0.00 | 60 | 1012.2 |
| 20260510195703 | 26 | 36 | 1.6 | 3.2 | 0.00 | 0.28 | 0.00 | 54 | 1012.2 |
| 20260510194704 | 25 | 169 | 0.0 | 3.2 | 0.00 | 0.28 | 0.00 | 50 | 1012.2 |
| 20260510194203 | 25 | 166 | 0.0 | 8.0 | 0.00 | 0.28 | 0.00 | 53 | 1012.5 |
| 20260510193703 | 25 | 193 | 1.6 | 3.2 | 0.00 | 0.28 | 0.00 | 54 | 1012.5 |
| 20260510192703 | 25 | 193 | 4.8 | 16.1 | 0.00 | 0.28 | 0.00 | 56 | 1012.2 |
| 20260510192203 | 25 | 222 | 4.8 | 16.1 | 0.00 | 0.28 | 0.00 | 56 | 1012.5 |
| 20260510191704 | 26 | 197 | 8.0 | 20.9 | 0.00 | 0.28 | 0.00 | 55 | 1012.7 |
| 20260510191204 | 26 | 49 | 3.2 | 11.3 | 0.00 | 0.28 | 0.00 | 54 | 1012.5 |
| 20260510190703 | 26 | 168 | 1.6 | 11.3 | 0.00 | 0.28 | 0.00 | 53 | 1012.9 |
| 20260510190203 | 26 | 204 | 4.8 | 11.3 | 0.00 | 0.28 | 0.00 | 52 | 1012.5 |
| 20260510185704 | 26 | 140 | 0.0 | 3.2 | 0.00 | 0.28 | 0.00 | 58 | 1012.5 |
| 20260510185203 | 26 | 175 | 3.2 | 11.3 | 0.00 | 0.28 | 0.00 | 55 | 1012.9 |
| 20260510184703 | 26 | 175 | 1.6 | 8.0 | 0.00 | 0.28 | 0.00 | 53 | 1012.8 |
| 20260510184203 | 25 | 174 | 3.2 | 11.3 | 0.00 | 0.28 | 0.00 | 54 | 1012.5 |
| 20260510183203 | 25 | 152 | 3.2 | 11.3 | 0.00 | 0.28 | 0.00 | 56 | 1012.5 |
| 20260510182203 | 25 | 213 | 4.8 | 11.3 | 0.00 | 0.28 | 0.00 | 57 | 1012.5 |
| 20260510181703 | 25 | 199 | 4.8 | 16.1 | 0.00 | 0.28 | 0.00 | 59 | 1012.6 |
| 20260510181203 | 25 | 139 | 0.0 | 11.3 | 0.00 | 0.28 | 0.00 | 63 | 1012.9 |
| 20260510180703 | 25 | 142 | 0.0 | 3.2 | 0.00 | 0.28 | 0.00 | 61 | 1012.8 |
| 20260510180203 | 25 | 182 | 1.6 | 8.0 | 0.00 | 0.28 | 0.00 | 59 | 1012.9 |
| 20260510175704 | 25 | 177 | 1.6 | 8.0 | 0.00 | 0.28 | 0.00 | 58 | 1012.7 |
| 20260510175204 | 25 | 180 | 3.2 | 16.1 | 0.00 | 0.28 | 0.00 | 58 | 1012.9 |
| 20260510174703 | 25 | 197 | 4.8 | 16.1 | 0.00 | 0.28 | 0.00 | 61 | 1012.9 |
| 20260510174204 | 25 | 209 | 4.8 | 11.3 | 0.00 | 0.30 | 0.00 | 62 | 1012.7 |
| 20260510173703 | 24 | 201 | 1.6 | 8.0 | 0.00 | 0.30 | 0.00 | 62 | 1012.9 |
| 20260510173203 | 24 | 229 | 1.6 | 8.0 | 0.00 | 0.30 | 0.00 | 62 | 1012.9 |
| 20260510172703 | 23 | 210 | 4.8 | 11.3 | 0.00 | 0.30 | 0.00 | 63 | 1012.9 |
| 20260510172204 | 23 | 190 | 3.2 | 11.3 | 0.00 | 0.30 | 0.00 | 62 | 1012.9 |
| 20260510171703 | 23 | 200 | 4.8 | 16.1 | 0.00 | 0.30 | 0.00 | 64 | 1012.9 |
| 20260510170703 | 23 | 171 | 3.2 | 11.3 | 0.00 | 0.30 | 0.00 | 64 | 1012.7 |
| 20260510170203 | 23 | 196 | 1.6 | 11.3 | 0.00 | 0.30 | 0.00 | 64 | 1012.6 |
| 20260510165703 | 23 | 15 | 1.6 | 11.3 | 0.00 | 0.30 | 0.00 | 63 | 1012.9 |
| 20260510165204 | 23 | 169 | 8.0 | 11.3 | 0.00 | 0.30 | 0.00 | 64 | 1012.9 |
| 20260510164704 | 23 | 95 | 0.0 | 11.3 | 0.00 | 0.30 | 0.00 | 63 | 1012.9 |
| 20260510163704 | 22 | 235 | 1.6 | 8.0 | 0.00 | 0.30 | 0.00 | 66 | 1012.9 |
| 20260510163204 | 22 | 238 | 1.6 | 3.2 | 0.00 | 0.30 | 0.00 | 65 | 1012.9 |
| 20260510162203 | 21 | 173 | 1.6 | 8.0 | 0.00 | 0.30 | 0.00 | 68 | 1012.5 |
| 20260510161703 | 21 | 204 | 3.2 | 8.0 | 0.00 | 0.30 | 0.00 | 72 | 1012.9 |
| 20260510161203 | 21 | 144 | 1.6 | 8.0 | 0.00 | 0.30 | 0.00 | 74 | 1012.9 |
| 20260510160703 | 21 | 168 | 3.2 | 8.0 | 0.00 | 0.30 | 0.00 | 74 | 1012.9 |
| 20260510160203 | 21 | 161 | 1.6 | 8.0 | 0.00 | 0.30 | 0.00 | 74 | 1012.9 |
| 20260510155203 | 20 | 175 | 1.6 | 8.0 | 0.00 | 0.30 | 0.00 | 76 | 1012.9 |
| 20260510154703 | 20 | 187 | 1.6 | 8.0 | 0.00 | 0.30 | 0.00 | 78 | 1013.1 |
| 20260510154203 | 18 | 204 | 1.6 | 8.0 | 0.00 | 0.30 | 0.00 | 78 | 1013.2 |
| 20260510153703 | 18 | 170 | 1.6 | 8.0 | 0.00 | 0.30 | 0.00 | 79 | 1013.2 |
| 20260510153204 | 17 | 217 | 1.6 | 8.0 | 0.00 | 0.30 | 0.00 | 80 | 1013.2 |
| 20260510152203 | 16 | 115 | 1.6 | 3.2 | 0.00 | 0.30 | 0.00 | 86 | 1013.2 |
| 20260510151703 | 16 | 143 | 0.0 | 3.2 | 0.00 | 0.30 | 0.00 | 93 | 1013.2 |
| 20260510151203 | 15 | 195 | 1.6 | 8.0 | 0.00 | 0.30 | 0.00 | 94 | 1013.2 |
| 20260510150703 | 15 | 161 | 0.0 | 8.0 | 0.00 | 0.30 | 0.00 | 98 | 1013.2 |
| 20260510150203 | 15 | 158 | 0.0 | 8.0 | 0.00 | 0.30 | 0.00 | 98 | 1013.2 |
| 20260510145703 | 14 | 155 | 0.0 | 0.0 | 0.00 | 0.30 | 0.00 | 99 | 1013.2 |
| 20260510145203 | 14 | 155 | 0.0 | 0.0 | 0.00 | 0.30 | 0.00 | 99 | 1013.2 |
| 20260510144704 | 14 | 160 | 1.6 | 3.2 | 0.00 | 0.30 | 0.00 | 99 | 1013.2 |
| 20260510144203 | 13 | 152 | 1.6 | 3.2 | 0.00 | 0.30 | 0.00 | 99 | 1013.0 |
| 20260510143703 | 13 | 198 | 0.0 | 3.2 | 0.00 | 0.30 | 0.00 | 99 | 1013.2 |
| 20260510142703 | 13 | 130 | 0.0 | 3.2 | 0.00 | 0.30 | 0.00 | 99 | 1013.2 |
| 20260510142203 | 13 | 202 | 0.0 | 8.0 | 0.00 | 0.30 | 0.00 | 99 | 1013.2 |
| 20260510141703 | 13 | 199 | 0.0 | 3.2 | 0.00 | 0.30 | 0.00 | 99 | 1013.2 |
| 20260510141204 | 13 | 342 | 1.6 | 3.2 | 0.00 | 0.30 | 0.00 | 99 | 1013.4 |
| 20260510140703 | 13 | 161 | 0.0 | 3.2 | 0.00 | 0.30 | 0.00 | 99 | 1013.5 |
| 20260510135703 | 13 | 142 | 0.0 | 0.0 | 0.00 | 0.30 | 0.00 | 99 | 1013.2 |
| 20260510135204 | 13 | 209 | 0.0 | 0.0 | 0.00 | 0.30 | 0.00 | 99 | 1013.2 |
| 20260510134704 | 12 | 127 | 0.0 | 0.0 | 0.00 | 0.30 | 0.00 | 99 | 1012.9 |
| 20260510134204 | 12 | 162 | 0.0 | 0.0 | 0.00 | 0.30 | 0.00 | 99 | 1013.1 |
| 20260510133703 | 12 | 173 | 0.0 | 0.0 | 0.00 | 0.30 | 0.00 | 99 | 1013.3 |
| 20260510133204 | 12 | 168 | 0.0 | 0.0 | 0.00 | 0.30 | 0.00 | 99 | 1013.2 |
| 20260510132703 | 12 | 171 | 0.0 | 0.0 | 0.00 | 0.30 | 0.00 | 99 | 1013.2 |
| 20260510132203 | 12 | 163 | 0.0 | 0.0 | 0.00 | 0.30 | 0.00 | 99 | 1013.2 |
| 20260510131707 | 12 | 179 | 0.0 | 0.0 | 0.00 | 0.30 | 0.00 | 99 | 1012.9 |
| 20260510131205 | 12 | 179 | 0.0 | 3.2 | 0.00 | 0.30 | 0.00 | 99 | 1012.9 |
| 20260510130706 | 12 | 156 | 0.0 | 3.2 | 0.00 | 0.30 | 0.00 | 99 | 1013.2 |
| 20260510130204 | 12 | 190 | 1.6 | 3.2 | 0.00 | 0.30 | 0.00 | 99 | 1012.9 |
| 20260510125205 | 12 | 217 | 0.0 | 0.0 | 0.00 | 0.30 | 0.00 | 99 | 1012.9 |
| 20260510124703 | 12 | 174 | 0.0 | 0.0 | 0.00 | 0.30 | 0.00 | 99 | 1012.5 |
| 20260510124203 | 11 | 184 | 0.0 | 0.0 | 0.00 | 0.30 | 0.00 | 99 | 1012.5 |
| 20260510122705 | 11 | 162 | 0.0 | 0.0 | 0.00 | 0.30 | 0.00 | 99 | 1012.2 |
| 20260510122204 | 11 | 175 | 0.0 | 0.0 | 0.00 | 0.30 | 0.00 | 99 | 1012.8 |
| 20260510121204 | 11 | 136 | 0.0 | 0.0 | 0.00 | 0.30 | 0.00 | 99 | 1012.5 |
| 20260510120704 | 11 | 136 | 0.0 | 0.0 | 0.00 | 0.30 | 0.00 | 99 | 1012.5 |
| 20260510120203 | 11 | 136 | 0.0 | 0.0 | 0.00 | 0.30 | 0.00 | 99 | 1012.5 |
| 20260510115704 | 11 | 173 | 0.0 | 0.0 | 0.00 | 0.30 | 0.00 | 99 | 1012.5 |
| 20260510115203 | 11 | 145 | 0.0 | 0.0 | 0.00 | 0.30 | 0.00 | 99 | 1012.5 |
| 20260510114204 | 11 | 118 | 0.0 | 3.2 | 0.00 | 0.30 | 0.00 | 99 | 1012.5 |
| 20260510113703 | 10 | 88 | 0.0 | 0.0 | 0.00 | 0.30 | 0.00 | 99 | 1012.2 |
| 20260510113204 | 10 | 102 | 0.0 | 3.2 | 0.00 | 0.30 | 0.00 | 99 | 1012.2 |
| 20260510112704 | 10 | 67 | 0.0 | 3.2 | 0.00 | 0.30 | 0.00 | 99 | 1012.2 |
| 20260510112203 | 10 | 41 | 0.0 | 3.2 | 0.00 | 0.30 | 0.00 | 99 | 1011.9 |
| 20260510111703 | 10 | 153 | 0.0 | 0.0 | 0.00 | 0.30 | 0.00 | 99 | 1012.2 |
| 20260510111204 | 10 | 132 | 0.0 | 0.0 | 0.00 | 0.30 | 0.00 | 99 | 1012.1 |
| 20260510110703 | 10 | 164 | 0.0 | 0.0 | 0.00 | 0.30 | 0.00 | 99 | 1012.2 |
| 20260510110203 | 10 | 142 | 0.0 | 0.0 | 0.00 | 0.30 | 0.00 | 99 | 1011.9 |
| 20260510105703 | 10 | 159 | 0.0 | 0.0 | 0.00 | 0.30 | 0.00 | 99 | 1012.0 |
| 20260510105204 | 10 | 61 | 1.6 | 8.0 | 0.00 | 0.30 | 0.00 | 99 | 1011.9 |
| 20260510104703 | 10 | 182 | 0.0 | 3.2 | 0.00 | 0.30 | 0.00 | 99 | 1011.9 |
| 20260510104203 | 10 | 0 | 0.0 | 0.0 | 0.00 | 0.30 | 0.00 | 99 | 1011.7 |
| 20260510103703 | 10 | 313 | 0.0 | 3.2 | 0.00 | 0.30 | 0.00 | 99 | 1011.5 |
| 20260510103204 | 10 | 139 | 0.0 | 0.0 | 0.00 | 0.30 | 0.00 | 99 | 1011.9 |
| 20260510102703 | 10 | 150 | 0.0 | 0.0 | 0.00 | 0.30 | 0.00 | 99 | 1011.7 |
| 20260510102204 | 10 | 151 | 0.0 | 0.0 | 0.00 | 0.30 | 0.00 | 99 | 1011.9 |
| 20260510101704 | 10 | 173 | 0.0 | 0.0 | 0.00 | 0.30 | 0.00 | 99 | 1011.9 |
| 20260510101204 | 10 | 113 | 0.0 | 0.0 | 0.00 | 0.30 | 0.00 | 99 | 1011.9 |
| 20260510100704 | 9 | 151 | 0.0 | 0.0 | 0.00 | 0.30 | 0.00 | 99 | 1011.9 |
| 20260510100203 | 9 | 152 | 0.0 | 0.0 | 0.00 | 0.30 | 0.00 | 99 | 1011.9 |
| 20260510095704 | 9 | 141 | 0.0 | 0.0 | 0.00 | 0.30 | 0.00 | 99 | 1011.7 |
| 20260510095203 | 9 | 151 | 0.0 | 0.0 | 0.00 | 0.30 | 0.00 | 99 | 1011.6 |
| 20260510094704 | 9 | 138 | 0.0 | 0.0 | 0.00 | 0.30 | 0.00 | 99 | 1011.5 |
| 20260510094204 | 9 | 114 | 0.0 | 0.0 | 0.00 | 0.30 | 0.00 | 99 | 1011.6 |
| 20260510093704 | 9 | 353 | 0.0 | 8.0 | 0.00 | 0.30 | 0.00 | 99 | 1011.5 |
| 20260510093203 | 9 | 110 | 0.0 | 3.2 | 0.00 | 0.30 | 0.00 | 99 | 1011.9 |
| 20260510092704 | 9 | 134 | 0.0 | 3.2 | 0.00 | 0.30 | 0.00 | 99 | 1011.5 |
| 20260510092203 | 8 | 50 | 0.0 | 8.0 | 0.00 | 0.30 | 0.00 | 99 | 1011.5 |
| 20260510091204 | 8 | 95 | 1.6 | 8.0 | 0.00 | 0.30 | 0.00 | 99 | 1011.4 |
| 20260510090704 | 8 | 148 | 0.0 | 16.1 | 0.00 | 0.30 | 0.00 | 99 | 1011.2 |
| 20260510090204 | 8 | 129 | 0.0 | 3.2 | 0.00 | 0.30 | 0.00 | 99 | 1011.5 |
| 20260510085203 | 8 | 130 | 0.0 | 0.0 | 0.00 | 0.30 | 0.00 | 99 | 1010.8 |
| 20260510084704 | 8 | 103 | 1.6 | 3.2 | 0.00 | 0.30 | 0.00 | 99 | 1010.8 |
| 20260510084203 | 8 | 135 | 0.0 | 0.0 | 0.00 | 0.30 | 0.00 | 99 | 1011.2 |
| 20260510083703 | 8 | 140 | 0.0 | 0.0 | 0.00 | 0.30 | 0.00 | 99 | 1011.2 |
| 20260510082204 | 8 | 123 | 0.0 | 0.0 | 0.00 | 0.30 | 0.00 | 99 | 1010.8 |
| 20260510081704 | 8 | 128 | 0.0 | 0.0 | 0.00 | 0.30 | 0.00 | 99 | 1010.9 |
| 20260510080704 | 8 | 135 | 0.0 | 0.0 | 0.00 | 0.30 | 0.00 | 99 | 1010.8 |
| 20260510080203 | 8 | 117 | 0.0 | 0.0 | 0.00 | 0.30 | 0.00 | 99 | 1011.2 |
| 20260510075204 | 8 | 107 | 0.0 | 3.2 | 0.00 | 0.30 | 0.00 | 99 | 1011.1 |
| 20260510074703 | 8 | 345 | 1.6 | 3.2 | 0.00 | 0.30 | 0.00 | 99 | 1010.8 |
| 20260510074204 | 8 | 82 | 1.6 | 3.2 | 0.00 | 0.30 | 0.00 | 99 | 1010.8 |
| 20260510073704 | 8 | 119 | 0.0 | 0.0 | 0.00 | 0.30 | 0.00 | 99 | 1010.8 |
| 20260510073204 | 8 | 137 | 0.0 | 0.0 | 0.00 | 0.30 | 0.00 | 99 | 1010.8 |
| 20260510072704 | 8 | 72 | 0.0 | 0.0 | 0.00 | 0.30 | 0.00 | 99 | 1010.8 |
| 20260510072203 | 8 | 72 | 0.0 | 0.0 | 0.00 | 0.30 | 0.00 | 99 | 1010.8 |
| 20260510071703 | 8 | 97 | 0.0 | 11.3 | 0.00 | 0.30 | 0.00 | 99 | 1010.8 |
| 20260510071203 | 8 | 38 | 1.6 | 8.0 | 0.00 | 0.30 | 0.00 | 99 | 1010.6 |
| 20260510070704 | 8 | 121 | 0.0 | 0.0 | 0.00 | 0.30 | 0.00 | 99 | 1010.5 |
| 20260510070203 | 8 | 127 | 0.0 | 0.0 | 0.00 | 0.30 | 0.00 | 99 | 1010.3 |
| 20260510065204 | 8 | 127 | 0.0 | 0.0 | 0.00 | 0.30 | 0.00 | 99 | 1010.2 |
| 20260510064703 | 8 | 126 | 0.0 | 0.0 | 0.00 | 0.30 | 0.00 | 99 | 1010.2 |
| 20260510064204 | 8 | 126 | 0.0 | 0.0 | 0.00 | 0.30 | 0.00 | 99 | 1010.2 |
| 20260510063703 | 8 | 126 | 0.0 | 0.0 | 0.00 | 0.30 | 0.00 | 99 | 1010.2 |
| 20260510063204 | 8 | 126 | 0.0 | 0.0 | 0.00 | 0.30 | 0.00 | 99 | 1010.2 |
| 20260510062703 | 8 | 126 | 0.0 | 0.0 | 0.00 | 0.30 | 0.00 | 99 | 1010.5 |
| 20260510061704 | 8 | 125 | 0.0 | 0.0 | 0.00 | 0.30 | 0.00 | 99 | 1010.2 |
| 20260510061203 | 8 | 125 | 0.0 | 0.0 | 0.00 | 0.30 | 0.00 | 99 | 1010.7 |
| 20260510060702 | 8 | 125 | 0.0 | 0.0 | 0.00 | 0.30 | 0.00 | 99 | 1010.5 |
| 20260510060202 | 8 | 125 | 0.0 | 0.0 | 0.00 | 0.30 | 0.00 | 99 | 1010.5 |
| 20260510055702 | 8 | 108 | 0.0 | 0.0 | 0.00 | 0.30 | 0.00 | 99 | 1010.5 |
| 20260510055202 | 8 | 127 | 0.0 | 0.0 | 0.00 | 0.30 | 0.00 | 99 | 1010.8 |
| 20260510054702 | 8 | 127 | 0.0 | 0.0 | 0.00 | 0.30 | 0.00 | 99 | 1010.8 |
| 20260510054202 | 8 | 127 | 0.0 | 0.0 | 0.00 | 0.30 | 0.00 | 99 | 1010.8 |
| 20260510053702 | 8 | 128 | 0.0 | 0.0 | 0.00 | 0.30 | 0.00 | 99 | 1011.1 |
| 20260510053202 | 8 | 127 | 0.0 | 0.0 | 0.00 | 0.30 | 0.00 | 99 | 1010.8 |
| 20260510052702 | 8 | 121 | 0.0 | 0.0 | 0.00 | 0.30 | 0.00 | 99 | 1010.8 |
| 20260510051702 | 8 | 129 | 0.0 | 0.0 | 0.00 | 0.30 | 0.00 | 99 | 1010.8 |
| 20260510051202 | 8 | 129 | 0.0 | 0.0 | 0.00 | 0.30 | 0.00 | 99 | 1010.8 |
| 20260510050703 | 8 | 128 | 0.0 | 0.0 | 0.00 | 0.30 | 0.00 | 99 | 1010.8 |
| 20260510050202 | 8 | 129 | 0.0 | 0.0 | 0.00 | 0.30 | 0.00 | 99 | 1011.1 |
| 20260510045703 | 8 | 129 | 0.0 | 0.0 | 0.00 | 0.30 | 0.00 | 99 | 1010.8 |
| 20260510045203 | 9 | 129 | 0.0 | 0.0 | 0.00 | 0.30 | 0.00 | 99 | 1010.8 |
| 20260510044202 | 9 | 129 | 0.0 | 0.0 | 0.00 | 0.30 | 0.00 | 99 | 1011.2 |
| 20260510043702 | 9 | 129 | 0.0 | 0.0 | 0.00 | 0.30 | 0.00 | 99 | 1011.2 |
| 20260510043202 | 9 | 129 | 0.0 | 0.0 | 0.00 | 0.30 | 0.00 | 99 | 1011.2 |
| 20260510042702 | 9 | 129 | 0.0 | 0.0 | 0.00 | 0.30 | 0.00 | 99 | 1011.2 |
| 20260510041703 | 9 | 129 | 0.0 | 0.0 | 0.00 | 0.30 | 0.00 | 99 | 1011.4 |
| 20260510041202 | 9 | 129 | 0.0 | 0.0 | 0.00 | 0.30 | 0.00 | 99 | 1011.2 |
| 20260510040703 | 9 | 129 | 0.0 | 0.0 | 0.00 | 0.30 | 0.00 | 99 | 1011.3 |
| 20260510035702 | 9 | 129 | 0.0 | 0.0 | 0.00 | 0.30 | 0.30 | 99 | 1011.2 |
| 20260510035202 | 9 | 129 | 0.0 | 0.0 | 0.00 | 0.30 | 0.30 | 99 | 1011.2 |
| 20260510034702 | 9 | 129 | 0.0 | 0.0 | 0.00 | 0.30 | 0.30 | 99 | 1011.2 |
| 20260510034202 | 9 | 129 | 0.0 | 0.0 | 0.00 | 0.30 | 0.30 | 99 | 1011.2 |
| 20260510033702 | 10 | 129 | 0.0 | 0.0 | 0.00 | 0.30 | 0.30 | 99 | 1010.8 |
| 20260510033202 | 10 | 129 | 0.0 | 0.0 | 0.00 | 0.30 | 0.30 | 99 | 1011.2 |
| 20260510032703 | 10 | 129 | 0.0 | 0.0 | 0.00 | 0.30 | 0.30 | 99 | 1010.8 |
| 20260510032202 | 10 | 129 | 0.0 | 0.0 | 0.00 | 0.30 | 0.30 | 99 | 1010.8 |
| 20260510031702 | 10 | 129 | 0.0 | 0.0 | 0.00 | 0.30 | 0.30 | 99 | 1010.8 |
| 20260510031202 | 10 | 129 | 0.0 | 0.0 | 0.00 | 0.30 | 0.30 | 99 | 1011.1 |
| 20260510030703 | 10 | 129 | 0.0 | 0.0 | 0.00 | 0.30 | 0.30 | 99 | 1010.8 |
| 20260510030203 | 10 | 129 | 0.0 | 0.0 | 0.00 | 0.30 | 0.30 | 99 | 1010.8 |
| 20260510025202 | 10 | 130 | 0.0 | 0.0 | 0.00 | 0.30 | 0.30 | 99 | 1010.8 |
| 20260510024702 | 10 | 130 | 0.0 | 0.0 | 0.00 | 0.30 | 0.30 | 99 | 1010.8 |
| 20260510024202 | 10 | 129 | 0.0 | 0.0 | 0.00 | 0.30 | 0.30 | 99 | 1010.8 |
| 20260510023703 | 10 | 130 | 0.0 | 0.0 | 0.00 | 0.30 | 0.30 | 99 | 1010.8 |
| 20260510023202 | 10 | 130 | 0.0 | 0.0 | 0.00 | 0.30 | 0.30 | 99 | 1010.8 |
| 20260510022203 | 10 | 130 | 0.0 | 0.0 | 0.00 | 0.30 | 0.30 | 99 | 1011.1 |
| 20260510020702 | 10 | 130 | 0.0 | 0.0 | 0.00 | 0.30 | 0.30 | 99 | 1010.8 |
| 20260510015702 | 10 | 130 | 0.0 | 0.0 | 0.00 | 0.30 | 0.30 | 99 | 1010.8 |
| 20260510015202 | 10 | 129 | 0.0 | 0.0 | 0.00 | 0.30 | 0.30 | 99 | 1010.8 |
| 20260510014703 | 10 | 131 | 0.0 | 0.0 | 0.00 | 0.30 | 0.30 | 99 | 1010.8 |
| 20260510013702 | 11 | 131 | 0.0 | 0.0 | 0.00 | 0.30 | 0.30 | 99 | 1010.8 |
| 20260510013203 | 11 | 131 | 0.0 | 0.0 | 0.00 | 0.30 | 0.30 | 99 | 1010.8 |
| 20260510012703 | 11 | 131 | 0.0 | 0.0 | 0.00 | 0.30 | 0.30 | 99 | 1010.8 |
| 20260510012202 | 11 | 132 | 0.0 | 0.0 | 0.00 | 0.30 | 0.30 | 99 | 1010.8 |
| 20260510011702 | 11 | 132 | 0.0 | 0.0 | 0.00 | 0.30 | 0.30 | 99 | 1010.8 |
| 20260510011202 | 11 | 132 | 0.0 | 0.0 | 0.00 | 0.30 | 0.30 | 99 | 1010.8 |
| 20260510010702 | 11 | 131 | 0.0 | 0.0 | 0.00 | 0.30 | 0.30 | 99 | 1010.7 |
| 20260510005702 | 11 | 131 | 0.0 | 0.0 | 0.00 | 0.30 | 0.30 | 99 | 1010.5 |
| 20260510005203 | 11 | 131 | 0.0 | 0.0 | 0.00 | 0.30 | 0.30 | 99 | 1010.5 |
| 20260510004702 | 11 | 131 | 0.0 | 0.0 | 0.00 | 0.30 | 0.30 | 99 | 1010.8 |
| 20260510004202 | 11 | 131 | 0.0 | 0.0 | 0.00 | 0.30 | 0.30 | 99 | 1010.5 |
| 20260510003702 | 11 | 131 | 0.0 | 0.0 | 0.00 | 0.30 | 0.30 | 99 | 1010.5 |
| 20260510003202 | 12 | 131 | 0.0 | 0.0 | 0.00 | 0.30 | 0.30 | 99 | 1010.2 |
| 20260510002703 | 12 | 131 | 0.0 | 0.0 | 0.00 | 0.30 | 0.30 | 99 | 1010.5 |
| 20260510002202 | 12 | 131 | 0.0 | 0.0 | 0.00 | 0.30 | 0.30 | 99 | 1010.7 |
| 20260510001702 | 12 | 131 | 0.0 | 0.0 | 0.00 | 0.30 | 0.30 | 98 | 1010.5 |
| 20260510001203 | 12 | 131 | 0.0 | 0.0 | 0.00 | 0.30 | 0.30 | 98 | 1010.5 |
| 20260510000702 | 12 | 131 | 0.0 | 0.0 | 0.00 | 0.30 | 0.30 | 98 | 1010.5 |
| 20260510000204 | 12 | 131 | 0.0 | 0.0 | 0.00 | 0.30 | 0.30 | 98 | 1010.4 |
| 20260509235703 | 12 | 132 | 0.0 | 0.0 | 0.00 | 0.30 | 0.30 | 98 | 1010.5 |
| 20260509235202 | 12 | 131 | 0.0 | 0.0 | 0.00 | 0.30 | 0.30 | 98 | 1010.5 |
| 20260509234703 | 12 | 131 | 0.0 | 0.0 | 0.00 | 0.30 | 0.30 | 98 | 1010.3 |
| 20260509234202 | 12 | 128 | 0.0 | 0.0 | 0.00 | 0.30 | 0.30 | 98 | 1010.5 |
| 20260509233702 | 13 | 135 | 0.0 | 0.0 | 0.00 | 0.30 | 0.30 | 98 | 1010.2 |
| 20260509233202 | 13 | 122 | 0.0 | 0.0 | 0.00 | 0.30 | 0.30 | 98 | 1010.3 |
| 20260509232703 | 13 | 102 | 0.0 | 0.0 | 0.00 | 0.30 | 0.30 | 97 | 1010.2 |
| 20260509232202 | 13 | 96 | 0.0 | 0.0 | 0.00 | 0.30 | 0.30 | 97 | 1010.2 |
| 20260509230202 | 13 | 121 | 0.0 | 0.0 | 0.00 | 0.30 | 0.30 | 97 | 1010.2 |
| 20260509225203 | 13 | 146 | 0.0 | 0.0 | 0.00 | 0.30 | 0.30 | 96 | 1010.2 |
| 20260509224702 | 13 | 146 | 0.0 | 0.0 | 0.00 | 0.30 | 0.30 | 96 | 1010.2 |
| 20260509224203 | 13 | 161 | 0.0 | 0.0 | 0.15 | 0.30 | 0.30 | 96 | 1010.2 |
| 20260509223702 | 13 | 147 | 0.0 | 0.0 | 0.28 | 0.30 | 0.30 | 96 | 1010.2 |
| 20260509223202 | 13 | 104 | 0.0 | 3.2 | 0.28 | 0.30 | 0.30 | 96 | 1010.2 |
| 20260509222203 | 13 | 82 | 0.0 | 8.0 | 0.28 | 0.30 | 0.30 | 95 | 1010.5 |
| 20260509221703 | 13 | 110 | 0.0 | 8.0 | 0.28 | 0.30 | 0.30 | 95 | 1010.5 |
| 20260509221202 | 14 | 149 | 0.0 | 0.0 | 0.28 | 0.30 | 0.30 | 95 | 1010.5 |
| 20260509215703 | 14 | 133 | 0.0 | 0.0 | 0.28 | 0.30 | 0.30 | 94 | 1010.8 |
| 20260509214702 | 15 | 294 | 0.0 | 3.2 | 0.28 | 0.30 | 0.30 | 92 | 1010.8 |
| 20260509213703 | 15 | 115 | 0.0 | 0.0 | 0.00 | 0.03 | 0.03 | 83 | 1011.5 |
| 20260509213202 | 15 | 105 | 0.0 | 0.0 | 0.00 | 0.03 | 0.03 | 83 | 1011.5 |
| 20260509212702 | 15 | 88 | 0.0 | 3.2 | 0.00 | 0.03 | 0.03 | 83 | 1011.2 |
| 20260509211702 | 15 | 27 | 3.2 | 8.0 | 0.00 | 0.03 | 0.03 | 82 | 1010.8 |
| 20260509210703 | 16 | 146 | 1.6 | 8.0 | 0.00 | 0.03 | 0.03 | 82 | 1010.5 |
| 20260509205703 | 16 | 5 | 1.6 | 3.2 | 0.00 | 0.03 | 0.03 | 80 | 1010.5 |
| 20260509205202 | 16 | 354 | 0.0 | 3.2 | 0.00 | 0.03 | 0.03 | 80 | 1010.2 |